Flag for Norway Weather past 2 weeks in Osøyro, Norway

Now
59 °F

Passing clouds.


Feels Like: 58 °F
Forecast: 56 / 65 °F
Wind: 7 mph from Southwest

Location: Bergen / Flesland

Current Time: Aug 30, 2015 at 8:12:08 PM

Latest Report: Aug 30, 2015 at 7:00 PM


Visibility: 19 mi

Pressure: 30.05 "Hg

Humidity: 78%

Dew point: 52 °F

Location of OsøyroLocation

Historic Weather in Osøyro — Graph

°F

Osøyro temperature yesterday

Maximum temperature yesterday: 61 °F (at 4:00 PM)
Minimum temperature yesterday: 54 °F (at 2:00 AM)
Average temperature yesterday: 58 °F

Past Weeks' High & Low Weather Summary

 TemperatureHumidityPressure
High78 °F (Aug 19, 2:00 PM)98% (Aug 16, 6:00 AM)30.24 "Hg (Aug 16, 6:00 AM)
Low51 °F (Aug 18, 6:00 AM)21% (Aug 19, 3:00 PM)29.47 "Hg (Aug 26, 3:00 AM)
Average63 °F71%29.95 "Hg
* Reported Aug 15 7:00 PM — Aug 30 7:00 PM, Osøyro, Weather by CustomWeather, © 2015

Note: Actual official high and low records may vary slightly from our data, if they occured in-between our weather recording intervals... More about our weather records

Advertising

Osøyro weather history for previous 24 hours

 ConditionsComfort  
Time TempWeatherWind HumidityBarometerVisibility
7:00 PM
Sun, Aug 30
59 °FPassing clouds.7 mph78%30.05 "Hg19 mi
6:00 PM61 °FOvercast.7 mph80%30.05 "Hg16 mi
5:00 PM61 °FPartly sunny.7 mph77%30.05 "Hg19 mi
4:00 PM61 °FPartly sunny.8 mph75%30.05 "Hg19 mi
3:00 PM62 °FOvercast.7 mph72%30.06 "Hg16 mi
2:00 PM61 °FOvercast.7 mph81%30.06 "Hg17 mi
1:00 PM60 °FRain showers. Partly sunny.10 mph82%30.04 "Hg14 mi
12:00 PM60 °FScattered clouds.9 mph80%30.03 "Hg12 mi
11:00 AM59 °FLight mixture of precip. Overcast.7 mph88%30.03 "Hg2 mi
10:00 AM59 °FScattered clouds.6 mph86%30.02 "Hg11 mi
9:00 AM58 °FPassing clouds.6 mph88%30.01 "Hg10 mi
8:00 AM58 °FOvercast.6 mph90%30.01 "Hg9 mi
7:00 AM57 °FRain showers. Partly sunny.6 mph90%29.99 "Hg9 mi
6:00 AM57 °FPassing clouds.5 mph90%29.99 "Hg9 mi
5:00 AM58 °FRain showers. Overcast.7 mph91%29.99 "Hg7 mi
4:00 AM57 °FPassing clouds.5 mph91%29.99 "Hg7 mi
3:00 AM56 °FPassing clouds.5 mph93%29.98 "Hg7 mi
2:00 AM57 °FRain. Overcast.6 mph89%29.98 "Hg6 mi
1:00 AM57 °FLots of rain. Overcast.6 mph86%29.98 "Hg12 mi
12:00 AM58 °FOvercast.5 mph84%29.98 "Hg12 mi
10:00 PM
Sat, Aug 29
58 °FOvercast.7 mph85%29.97 "Hg9 mi
9:00 PM58 °FPassing clouds.5 mph83%29.96 "Hg11 mi
8:00 PM59 °FPartly sunny.7 mph83%29.96 "Hg10 mi
Weather by CustomWeather, © 2015

See weather overviewHow to use our weather pages